Location: St. Louis
(38.6270°N, 90.1994°W)
Time: 15:04:13
(UTC-06:00)

Vanguard 1 - Pass Details

Date: 07 December 2021
Orbit: 652 x 3830 km, 34.2° (Epoch: 19 January)

Event Time Altitude Azimuth Distance (km) Brightness Sun altitude
Rises 21:45:16 0° 225° (SW) 6,168 14.3 -58.6°
Reaches altitude 10° 21:48:52 10° 220° (SW) 5,508 13.9 -59.2°
Enters shadow 21:53:46 25° 212° (SSW) 4,763 13.4 -60.1°
Maximum altitude 22:06:37 55° 149° (SSE) 4,097 - -62.4°
Drops below altitude 10° 22:28:57 10° 80° (E) 6,774 - -66.1°
Sets 22:33:59 0° 76° (ENE) 7,604 - -66.9°
